Location: Austin
(30.3000°N, 97.7500°W)
Time: 22:22:42
(UTC-05:00)

Mugunghwa Rocket - Pass Details

Date: 05 September 2024
Orbit: 936 x 1372 km, 26.7° (Epoch: 14 September)

Event Time Altitude Azimuth Distance (km) Brightness Sun altitude
Rises 21:50:57 0° 271° (W) 3,581 8.0 -26.2°
Reaches altitude 10° 21:53:38 10° 266° (W) 2,634 7.0 -26.8°
Maximum altitude 21:59:38 48° 193° (SSW) 1,224 4.3 -27.9°
Enters shadow 21:59:41 48° 192° (SSW) 1,225 4.3 -27.9°
